DW8097 Weather Reports


time (UTC)temp
C
wind
direction
speed
KPH
gust
KPH
rain 1hr
cm
rain 24hr
cm
rain mn
cm
humidity
%
barometer
mb
20260902194525 30 291 0.0 8.0 0.00 1.37 0.00 59 1009.0
20260902193020 31 49 0.0 12.9 0.00 1.37 0.00 55 1009.2
20260902191518 31 126 4.8 14.5 0.00 1.37 0.00 55 1009.2
20260902190014 30 84 0.0 11.3 0.00 1.37 0.00 57 1009.2
20260902184512 30 121 8.0 14.5 0.00 1.37 0.00 57 1009.3
20260902183008 30 182 0.0 6.4 0.00 1.37 0.00 56 1009.7
20260902181504 31 53 0.0 3.2 0.00 1.37 0.00 56 1009.9
20260902180116 30 119 3.2 12.9 0.00 1.37 0.00 56 1010.0
20260902174559 29 125 0.0 3.2 0.00 1.37 0.00 59 1010.2
20260902173051 30 110 0.0 4.8 0.00 1.37 0.00 59 1010.4
20260902171547 28 71 0.0 8.0 0.00 1.37 0.00 64 1010.5
20260902170042 27 49 0.0 6.4 0.00 1.37 0.00 65 1010.3
20260902164535 26 86 0.0 6.4 0.00 1.37 0.00 68 1010.5
20260902163032 26 138 1.6 11.3 0.00 1.37 0.00 68 1010.6
20260902161527 26 132 3.2 14.5 0.00 1.37 0.00 70 1010.4
20260902160021 26 122 1.6 9.7 0.00 1.37 1.37 69 1010.4
20260902154552 25 116 0.0 14.5 0.00 1.37 1.37 71 1010.5
20260902153051 25 185 0.0 9.7 0.00 1.37 1.37 73 1010.5
20260902151550 24 150 1.6 11.3 0.00 1.37 1.37 75 1010.4
20260902150047 22 212 0.0 8.0 0.00 1.37 1.37 80 1010.2
20260902144559 22 173 1.6 11.3 0.00 1.37 1.37 80 1010.4
20260902143046 22 178 1.6 8.0 0.00 1.37 1.37 81 1010.8
20260902141518 21 180 0.0 9.7 0.00 1.37 1.37 80 1010.6
20260902140014 21 165 0.0 12.9 0.00 1.37 1.37 82 1010.5
20260902134516 20 157 0.0 12.9 0.00 1.37 1.37 85 1010.6
20260902133012 20 170 4.8 12.9 0.00 1.37 1.37 88 1010.7
20260902131511 18 173 0.0 8.0 0.00 1.37 1.37 91 1011.0
20260902130011 18 196 0.0 3.2 0.00 1.37 1.37 92 1011.0
20260902124508 17 234 0.0 0.0 0.00 1.37 1.37 91 1010.4
20260902123007 17 343 0.0 0.0 0.00 1.37 1.37 91 1010.5
20260902121505 17 205 0.0 0.0 0.00 1.37 1.37 91 1010.1
20260902120005 17 5 0.0 0.0 0.00 1.37 1.37 90 1010.8
20260902114502 17 261 0.0 0.0 0.00 1.37 1.37 89 1011.2
20260902113001 17 184 0.0 0.0 0.00 1.37 1.37 88 1011.5
20260902111600 18 240 0.0 1.6 0.00 1.37 1.37 87 1011.9
20260902110106 18 188 1.6 9.7 0.00 1.37 1.37 89 1011.9
20260902104538 18 232 1.6 24.1 0.00 1.37 1.37 89 1012.2
20260902103026 18 225 9.7 17.7 0.00 1.37 1.37 90 1012.4
20260902101529 19 173 1.6 6.4 0.00 1.37 1.37 89 1010.6
20260902100021 19 167 1.6 12.9 0.00 1.37 1.37 89 1010.3
20260902094520 19 157 0.0 6.4 0.00 1.37 1.37 88 1010.0
20260902093032 19 115 0.0 12.9 0.00 1.37 1.37 88 1010.0
20260902091517 19 82 3.2 11.3 0.03 1.37 1.37 89 1010.2
20260902090017 19 114 0.0 6.4 0.05 1.37 1.37 90 1011.0
20260902084515 19 80 3.2 8.0 0.10 1.37 1.37 90 1010.5
20260902083015 19 293 0.0 4.8 0.13 1.37 1.37 90 1010.2
20260902081512 19 219 0.0 17.7 0.20 1.35 1.35 87 1010.2
20260902080010 19 59 0.0 8.0 0.56 1.32 1.32 87 1010.4
20260902074509 19 221 0.0 11.3 1.07 1.27 1.27 90 1010.8
20260902073009 20 350 1.6 20.9 1.12 1.24 1.24 90 1012.4
20260902071507 19 263 8.0 29.0 1.09 1.12 1.12 90 1015.5
20260902070004 21 264 12.9 32.2 0.71 0.71 0.71 91 1014.6
20260902064610 20 274 0.0 0.0 0.20 0.20 0.20 93 1011.1
20260902063103 20 355 0.0 0.0 0.13 0.13 0.13 92 1010.0
20260902061559 20 220 0.0 0.0 0.03 0.03 0.03 92 1010.4
20260902060055 20 216 0.0 0.0 0.00 0.00 0.00 91 1010.3
20260902054553 20 58 0.0 0.0 0.00 0.00 0.00 90 1010.1
20260902053058 20 184 0.0 0.0 0.00 0.00 0.00 90 1010.2
20260902051553 20 184 0.0 0.0 0.00 0.00 0.00 90 1010.4
20260902050052 20 184 0.0 0.0 0.00 0.00 0.00 90 1010.4
20260902044549 20 184 0.0 0.0 0.00 0.00 0.00 90 1010.3
20260902043050 20 184 0.0 0.0 0.00 0.00 0.00 90 1010.0
20260902041552 20 184 0.0 0.0 0.00 0.00 0.00 89 1010.1
20260902040044 20 184 0.0 0.0 0.00 0.00 0.00 89 1010.3
20260902034555 20 184 0.0 0.0 0.00 0.00 0.00 89 1010.6
20260902033057 20 184 0.0 0.0 0.00 0.00 0.00 89 1010.8
20260902031541 20 221 0.0 0.0 0.00 0.00 0.00 89 1010.7
20260902030027 20 221 0.0 0.0 0.00 0.00 0.00 88 1010.6
20260902024527 21 221 0.0 0.0 0.00 0.00 0.00 88 1010.6
20260902023025 21 221 0.0 0.0 0.00 0.00 0.00 88 1010.5
20260902020025 21 248 0.0 0.0 0.00 0.00 0.00 86 1010.4
20260902014518 22 209 0.0 0.0 0.00 0.00 0.00 86 1010.3
20260902013016 22 209 0.0 0.0 0.00 0.00 0.00 84 1010.1
20260902010014 23 209 0.0 0.0 0.00 0.00 0.00 85 1010.3
20260902004515 23 209 0.0 0.0 0.00 0.00 0.00 82 1010.1
20260902003002 24 220 0.0 0.0 0.00 0.00 0.00 80 1010.2
20260902001656 25 256 0.0 0.0 0.00 0.00 0.00 77 1010.1
20260902000056 26 256 0.0 0.0 0.00 0.00 0.00 72 1010.1
20260901234557 26 256 0.0 0.0 0.00 0.00 0.00 68 1010.0
20260901233051 26 261 0.0 0.0 0.00 0.00 0.00 69 1010.1
20260901231545 27 310 0.0 0.0 0.00 0.00 0.00 65 1009.9
20260901230042 27 292 0.0 0.0 0.00 0.00 0.00 63 1009.8
20260901224543 27 208 0.0 0.0 0.00 0.00 0.00 62 1009.8
20260901223034 28 283 0.0 1.6 0.00 0.00 0.00 59 1010.1
20260901221534 28 227 0.0 0.0 0.00 0.00 0.00 60 1010.1
20260901220031 28 208 0.0 0.0 0.00 0.00 0.00 56 1009.9
20260901214533 28 202 0.0 0.0 0.00 0.00 0.00 53 1010.0
20260901213032 29 286 0.0 0.0 0.00 0.00 0.00 51 1010.2
20260901211533 29 323 0.0 1.6 0.00 0.00 0.00 50 1009.8
20260901210026 30 235 0.0 3.2 0.00 0.00 0.00 47 1010.1
20260901204521 30 297 0.0 1.6 0.00 0.00 0.00 48 1010.0
20260901203021 28 269 0.0 0.0 0.00 0.00 0.00 51 1010.1
20260901201519 29 267 0.0 1.6 0.00 0.00 0.00 48 1010.5
20260901200022 30 243 0.0 8.0 0.00 0.00 0.00 46 1010.6